Dewpoint
58 58 57 56 56 55 55 54 55 55 55 55 54 54 54 54 54 54 54 54 54 55 54 54 55 57 53 28 19 33 67 69 57 32 20 26 28 35 35 34 36 37 40 47 49 56 56
58 58 57 57 57 56 55 54 54 55 54 54 54 54 54 54 55 54 55 54 54 54 54 54 55 57 46 21 12 36 41 46 37 22 26 26 32 33 32 33 36 36 38 40 52 56 55
59 58 58 58 57 56 56 54 54 54 54 54 54 54 54 54 54 54 54 54 54 54 54 54 56 56 44 28 36 35 34 35 29 25 26 26 29 29 32 34 36 36 39 40 46 55 55
59 58 58 58 57 56 55 56 55 54 54 54 54 54 53 53 53 53 53 53 54 55 54 55 56 55 32 33 32 35 34 32 31 28 24 26 28 29 31 34 38 38 39 37 39 52 54
59 58 58 57 58 57 56 55 54 55 54 54 54 54 53 53 53 53 52 53 55 55 55 57 53 45 28 45 35 32 30 26 31 30 30 28 31 33 35 35 37 37 35 36 37 51 54
59 58 58 57 57 57 56 55 55 54 54 54 54 54 54 54 54 52 52 53 55 55 55 55 52 42 33 29 34 30 32 33 33 31 26 30 33 33 34 34 34 34 32 34 36 40 50
59 57 57 56 56 56 56 54 54 54 54 55 54 54 53 54 54 52 51 46 41 39 48 30 28 29 31 33 33 25 28 24 32 32 26 32 35 34 31 34 35 33 33 33 35 42 47
59 57 56 56 56 55 54 54 53 53 54 54 54 54 52 53 53 52 50 42 37 39 33 37 37 36 36 35 32 23 23 21 23 25 31 32 35 34 31 32 31 31 31 32 37 45 46
58 57 57 56 56 55 54 54 54 53 54 55 54 53 54 54 53 49 47 41 45 43 34 31 39 37 34 35 31 27 19 21 21 26 28 30 35 32 30 30 28 29 29 31 31 35 52
57 56 56 56 56 55 54 53 53 53 54 54 54 54 53 53 49 48 46 46 48 45 27 25 34 35 36 36 30 33 19 19 23 23 27 30 30 32 31 30 28 27 31 30 29 32 33
56 56 55 55 55 55 54 53 53 53 53 54 54 54 53 53 48 47 46 48 44 35 9 25 34 38 35 29 23 24 15 19 22 23 28 28 29 30 29 29 30 28 30 28 30 34 37
56 55 55 55 55 55 54 54 53 53 54 54 54 53 53 50 49 48 49 49 42 27 10 29 34 34 31 26 13 14 15 21 23 23 25 27 25 30 34 30 29 23 25 28 31 33 30
56 55 55 55 55 54 54 54 54 54 53 53 52 52 52 49 45 50 49 40 28 18 25 31 30 31 28 24 14 14 14 17 19 19 22 22 21 18 24 21 23 26 22 23 26 26 24
56 55 55 55 55 54 54 54 54 53 53 52 51 50 51 49 50 49 44 36 22 20 29 30 28 29 24 23 20 13 13 16 19 21 19 20 18 22 22 23 25 24 19 21 25 24 24
56 55 55 54 53 54 54 54 53 53 52 51 50 49 49 49 50 50 38 29 25 30 31 29 28 28 26 19 18 14 14 13 19 19 19 21 20 19 21 22 23 25 24 24 25 33 30
55 55 55 53 53 54 54 54 53 53 52 51 50 49 47 50 50 44 36 33 33 34 34 27 21 26 26 20 16 16 17 17 18 19 20 22 21 20 19 21 25 24 28 24 30 27 25
54 54 55 53 53 53 54 54 53 53 52 51 50 42 47 50 48 39 32 34 34 35 34 23 22 19 26 22 18 17 16 14 15 17 21 19 20 21 21 21 20 27 27 31 30 30 23
53 54 54 54 53 53 54 54 53 52 51 50 49 38 47 48 37 39 34 35 36 31 29 26 27 24 28 27 21 17 17 16 14 19 17 20 16 18 18 19 18 20 19 26 18 27 34
53 53 54 54 52 52 54 53 52 51 51 49 45 42 47 44 32 33 34 32 33 30 30 32 28 30 31 34 32 20 18 28 18 18 21 21 17 18 17 17 20 18 20 24 26 28 32
53 53 52 53 53 53 54 53 52 51 51 50 50 40 42 41 38 34 34 35 34 35 34 35 34 37 36 40 44 39 40 43 37 21 51 30 17 19 14 19 22 25 26 28 27 27 28
52 52 52 52 53 53 54 54 52 51 51 51 51 45 42 38 38 36 35 35 35 38 39 44 44 45 40 40 41 40 43 41 44 50 33 19 19 23 20 22 21 21 24 30 29 29 28
51 51 52 52 53 53 55 54 53 52 51 49 49 48 48 46 46 41 39 39 38 40 46 44 45 45 44 42 42 40 42 43 41 44 28 25 25 26 21 19 19 18 19 25 27 31 31
52 52 52 53 53 53 54 54 54 52 50 45 46 49 49 44 47 47 43 43 43 46 47 48 48 45 44 46 48 51 48 48 47 45 39 30 24 26 21 22 21 21 22 26 31 37 34
52 52 53 52 52 53 53 54 54 53 51 47 48 48 47 43 46 49 47 47 46 47 48 50 49 48 50 55 53 51 49 48 47 47 45 39 30 28 23 32 22 23 45 36 34 37 42
51 52 52 52 52 52 53 53 54 54 52 48 48 49 48 42 44 44 46 46 48 50 50 48 47 50 55 51 46 44 43 44 44 46 46 44 33 30 27 25 29 36 44 44 41 32 45
51 50 51 51 51 52 52 53 53 54 53 49 48 49 49 46 38 45 45 48 49 51 50 50 53 55 52 50 45 42 39 39 41 44 47 46 46 38 31 24 21 29 47 50 48 35 48
50 50 50 51 51 51 52 52 53 53 53 50 49 50 50 48 47 47 45 46 51 51 51 51 51 53 54 53 49 47 44 48 43 42 43 45 47 39 39 34 35 41 50 52 39 36 52
49 50 50 50 51 52 51 51 52 53 53 51 48 50 48 48 47 49 48 45 46 51 51 51 54 54 54 51 50 50 48 50 46 46 45 45 46 45 45 41 37 53 51 47 51 52 52
48 49 50 50 50 51 51 51 51 52 53 53 47 48 50 47 45 47 47 48 48 47 44 44 52 52 56 54 53 52 50 50 47 43 51 44 48 49 48 45 52 54 54 55 53 52 52
Lifted_Index
10 10 10 10 10 11 12 13 13 13 13 13 13 13 13 13 13 13 13 13 13 13 13 13 13 12 10 9 9 9 6 5 7 8 7 5 4 4 3 2 1 0 -0 -1 -2 -3 -3
9 9 10 10 10 10 11 12 13 13 12 13 13 13 13 13 13 13 13 13 13 13 13 13 13 12 10 9 10 10 8 8 8 9 7 5 4 4 3 2 1 0 -0 -1 -2 -3 -3
8 8 9 9 9 9 10 11 12 12 12 12 12 13 13 13 13 13 13 13 13 13 13 13 13 11 10 9 10 11 10 10 10 9 8 6 4 4 3 2 1 0 -0 -0 -1 -3 -4
8 8 8 9 9 9 9 10 11 12 12 12 12 12 13 13 13 12 13 13 13 14 14 13 12 11 9 9 10 11 10 10 10 10 9 7 4 3 3 2 1 -0 -0 0 -0 -2 -4
8 8 8 8 8 8 8 9 10 11 12 12 11 12 12 12 12 12 12 13 14 14 14 13 12 10 9 9 10 11 10 10 10 10 9 7 4 3 2 1 0 -0 -0 -0 -1 -2 -3
8 8 8 8 8 8 8 8 9 10 11 11 11 11 12 12 12 12 12 13 13 13 13 12 11 10 9 9 10 10 10 9 9 9 8 6 4 2 2 1 0 -0 -1 -1 -1 -2 -3
8 8 8 8 8 8 8 8 9 10 11 11 11 11 11 12 12 12 12 12 12 12 11 10 10 9 9 9 9 10 10 9 8 8 7 5 3 2 2 1 0 -1 -1 -1 -1 -2 -2
8 8 8 8 8 8 8 9 10 10 11 11 10 10 10 11 11 11 11 11 11 11 10 10 10 9 9 9 9 9 10 9 8 7 6 4 3 2 2 1 -0 -1 -1 -1 -1 -2 -2
8 8 8 8 8 8 9 9 10 11 11 10 9 9 10 10 10 10 10 10 11 10 9 8 9 9 9 9 9 9 9 9 7 6 5 4 3 3 2 1 -0 -1 -1 -1 -1 -1 -2
9 9 9 9 9 9 9 10 11 11 11 10 9 9 8 8 9 9 9 10 10 9 7 7 8 8 8 8 8 9 9 9 7 6 5 4 3 3 3 2 0 -1 -0 -0 0 -0 -0
9 9 9 9 9 9 9 10 11 11 10 9 9 8 7 7 7 8 9 9 9 7 5 6 7 8 8 8 8 9 9 9 8 6 6 5 4 4 3 3 1 0 0 0 0 0 0
9 9 9 9 9 9 10 10 11 11 10 9 8 7 6 6 7 8 8 8 8 5 4 5 7 7 7 8 8 8 9 8 7 6 6 5 4 4 3 3 2 1 1 0 0 0 0
9 9 9 9 9 9 10 10 11 10 9 8 6 6 5 6 6 7 8 7 6 4 5 5 6 7 7 7 7 7 7 7 7 6 5 5 5 4 4 4 2 1 0 0 0 0 0
10 10 10 10 10 9 10 10 10 10 9 7 5 5 5 6 6 7 7 6 5 5 5 5 6 7 7 7 7 7 6 6 6 6 5 4 4 5 5 4 2 1 0 0 0 0 0
11 10 10 10 10 10 10 10 10 10 8 6 5 5 5 6 6 7 7 6 5 5 5 5 5 6 6 7 7 7 6 6 6 6 5 4 4 5 4 3 2 1 1 1 0 0 -0
11 11 10 10 10 10 10 11 10 9 7 5 4 5 6 6 6 6 6 6 5 5 5 5 5 5 6 6 7 7 6 6 6 7 6 5 4 4 4 3 2 1 1 0 0 0 -0
12 12 11 10 10 10 10 11 11 9 6 4 4 5 6 6 6 6 6 6 6 6 6 5 5 4 5 5 6 6 6 6 6 7 7 6 5 4 4 3 2 1 1 0 0 -0 -0
12 12 11 10 10 10 10 11 11 9 6 4 4 5 6 6 6 6 6 6 6 7 7 6 5 4 4 4 4 5 5 6 6 6 6 6 5 4 3 3 2 2 1 0 0 -0 -0
12 12 12 11 10 10 10 11 11 9 6 3 4 5 6 6 6 6 6 7 7 7 7 6 5 4 3 3 3 3 3 4 5 5 5 5 5 4 3 3 3 2 1 1 0 -0 -0
13 13 12 11 10 10 10 11 11 9 6 3 3 4 5 6 6 6 6 6 6 6 5 4 3 3 2 2 2 1 1 2 3 4 5 5 4 3 3 3 2 2 1 0 -0 -0 -0
13 13 13 12 11 10 10 10 11 10 6 3 2 3 3 4 4 4 4 4 4 4 3 2 1 1 1 1 0 -0 -0 0 1 3 3 4 4 3 3 2 2 1 1 0 0 -0 -0
13 13 13 12 11 10 10 10 11 10 8 4 2 2 2 2 2 2 2 2 2 2 1 -0 -0 -0 -0 -0 -1 -1 -1 -0 0 1 2 2 2 2 2 2 2 1 1 1 0 0 -0
13 12 12 12 11 11 10 10 11 11 9 6 4 3 2 1 1 1 1 1 1 0 -1 -1 -1 -1 -1 -1 -1 -1 -1 -1 -1 -0 0 1 1 1 1 1 1 1 1 0 0 -0 -0
12 12 12 12 11 10 10 10 11 11 11 9 7 5 3 2 2 1 1 1 0 -0 -1 -2 -2 -2 -1 -1 -1 -1 -1 -1 -1 -1 -1 -0 0 0 0 0 0 0 -0 -0 -0 -0 -1
12 12 12 12 11 10 10 10 11 11 12 11 9 7 5 4 3 2 1 1 -0 -1 -2 -2 -2 -2 -2 -2 -2 -2 -2 -2 -2 -1 -1 -1 -0 0 -0 -0 -0 -0 -1 -1 -1 -0 -1
13 13 12 12 11 11 11 11 11 11 12 11 10 8 6 5 4 3 1 0 -0 -1 -2 -2 -2 -2 -2 -2 -2 -2 -2 -2 -2 -2 -1 -1 -1 -1 -0 -0 -0 -0 -1 -1 -1 -0 -1
13 13 13 12 11 11 11 11 11 12 12 12 11 9 7 6 5 4 2 1 -0 -1 -2 -2 -2 -3 -3 -3 -3 -3 -3 -2 -2 -2 -2 -2 -2 -1 -1 -1 -1 -0 -1 -1 -1 -1 -1
14 14 13 12 12 12 12 12 12 12 12 12 11 10 8 7 6 5 3 2 1 0 -1 -2 -2 -3 -3 -3 -3 -3 -3 -3 -2 -2 -2 -2 -2 -2 -2 -2 -1 -1 -1 -2 -1 -1 -1
15 14 14 13 12 12 12 12 12 12 12 12 11 10 8 7 7 6 5 3 2 1 -0 -1 -2 -3 -3 -3 -3 -3 -3 -2 -2 -2 -2 -1 -2 -2 -2 -2 -2 -2 -2 -2 -1 -1 -1